Back to catalog

ATLAS 5 CENTAUR DEB

AliveHEO
NORAD 43985·DEBRIS·🇺🇸 United States

Launched Sep 17, 2014 from Cape Canaveral Space Force Station

Loading…

Next Passes (next 24 hours)

TLE

FreshSource: Space-Track

Epoch: Sep 8, 2026, 06:48 UTC

1 43985U 14055AQ  26251.28398973 -.00000031  00000-0  00000-0 0  9994
2 43985  19.0725 166.4591 4763657 119.0230 296.5520  1.76721536 13495

Track ATLAS 5 CENTAUR DEB in real time with AllMySat

Download on the App Store